Weather in Bor

Russia / Kirov Oblast     59°11′26″N   53°05′03″E
temp.,
°C
wind,
m/s
gust,
m/s
humid.,
%
clouds,
%
prec.,
mm/h
press.,
hPa
HPBL,
m
20 january, thu
thu2000:00−13s269877 0.0 1013119
03:00−16ssw2610088 0.1 101491
06:00−17s3109888 0.0 1014212
09:00−16s4129587 0.0 1014331
12:00−12s5149090 0.0 1013455
15:00−11s51592100 0.1 1011599
18:00−9ssw51591100 0.3 1011710
21:00−7ssw51492100 0.8 1010788
21 january, fri
fri2100:00−7ssw51393100 0.4 1011734
03:00−7ssw51393100 0.9 1012682
06:00−7ssw51290100 0.2 1013585
09:00−7ssw41289100 0.2 1014517
12:00−7ssw41185100 0.0 1016486
15:00−8ssw41188100 0.0 1018434
18:00−10s3109195 0.0 1019319
21:00−12s3994100 0.0 1021235
22 january, sat
sat2200:00−13sse269598 0.0 1023133
03:00−13sse2697100 0.0 1023128
06:00−12sse3896100 0.0 1024179
09:00−11sse3995100 0.0 1024216
12:00−8sse3791100 0.0 1025283
15:00−10se259565 0.0 1026105
18:00−13se289634 0.0 1028143
21:00−13sse2796100 0.0 1029143
23 january, sun
sun2300:00−15sse269741 0.0 103097
03:00−13se2497100 0.0 103182
06:00−12se249759 0.1 1032108
09:00−14sse259869 0.1 1034106
12:00−9sse239277 0.0 1035171
15:00−10se249797 0.0 103677
18:00−10sse2697100 0.0 1037120
21:00−10sse1397100 0.0 103880
24 january, mon
mon2400:00−11sse1298100 0.0 103943
03:00−10sse2396100 0.1 103980
06:00−12s239691 0.0 103960
09:00−12sse1396100 0.0 104045
12:00−7s2485100 0.0 1039149
15:00−9sse1195100 0.0 103810
18:00−12s2395100 0.0 103848
21:00−12sse2694100 0.0 103795